Flag for U.S.A. Weather past 2 weeks in Inverness, Florida, U.S.A.

84 °F


Feels Like: 87 °F
Forecast: 62 / 84 °F
Wind: 9 mph from Southwest

Location: The Villages

Current Time: Oct 13, 2015 at 5:35:33 PM

Latest Report: Oct 13, 2015 at 4:55 PM

Visibility: N/A

Pressure: 29.80 "Hg

Humidity: 55%

Dew point: 66 °F

Location of InvernessLocation

Historic Weather in Inverness — Graph


Inverness temperature yesterday

Maximum temperature yesterday: 82 °F (at 1:55 PM)
Minimum temperature yesterday: 64 °F (at 6:55 AM)
Average temperature yesterday: 73 °F

Past Weeks' High & Low Weather Summary

High91 °F (Sep 30, 3:55 PM)100% (Sep 28, 8:35 PM)30.00 "Hg (Sep 28, 8:35 PM)
Low61 °F (Oct 4, 4:35 AM)42% (Oct 12, 2:55 PM)29.45 "Hg (Oct 3, 4:15 AM)
Average75 °F83%29.75 "Hg
* Reported Sep 28 4:15 PM — Oct 13 4:15 PM, Inverness, Weather by CustomWeather, © 2015

Note: Actual official high and low records may vary slightly from our data, if they occured in-between our weather recording intervals... More about our weather records


Inverness weather history for previous 24 hours

Time TempWeatherWind HumidityBarometerVisibility
4:15 PM
Tue, Oct 13
84 °FWarm.10 mph55%29.80 "Hg10 mi
3:55 PM86 °FWarm.12 mph52%29.80 "Hg10 mi
3:35 PM84 °FWarm.13 mph55%29.80 "Hg8 mi
3:15 PM86 °FWarm.12 mph52%29.80 "Hg10 mi
2:55 PM86 °FWarm.12 mph52%29.81 "Hg8 mi
2:35 PM84 °FWarm.13 mph51%29.81 "Hg10 mi
2:15 PM84 °FWarm.14 mph51%29.82 "Hg10 mi
1:55 PM84 °FWarm.13 mph55%29.83 "Hg10 mi
1:35 PM84 °FWarm.14 mph55%29.84 "Hg10 mi
1:15 PM84 °FWarm.12 mph55%29.84 "Hg10 mi
12:55 PM86 °FWarm.10 mph55%29.85 "Hg10 mi
12:35 PM84 °FWarm.12 mph55%29.85 "Hg10 mi
12:15 PM82 °FWarm.8 mph62%29.86 "Hg10 mi
11:55 AM81 °FWarm.9 mph62%29.86 "Hg10 mi
11:35 AM82 °FWarm.10 mph62%29.87 "Hg10 mi
11:15 AM81 °FWarm.8 mph66%29.87 "Hg10 mi
10:55 AM81 °FWarm.8 mph66%29.87 "Hg10 mi
10:35 AM79 °FWarm.7 mph70%29.88 "Hg8 mi
10:15 AM77 °FWarm.5 mph74%29.88 "Hg10 mi
9:55 AM75 °FMild.5 mph74%29.88 "Hg10 mi
9:35 AM73 °FMild.No wind74%29.88 "Hg10 mi
9:15 AM72 °FMild.No wind78%29.88 "Hg10 mi
8:55 AM68 °FMild.No wind88%29.87 "Hg10 mi
8:35 AM66 °FMild.No wind94%29.87 "Hg10 mi
8:15 AM64 °FMild.No wind94%29.86 "HgN/A
7:55 AM63 °FMild.No wind100%29.85 "Hg9 mi
7:35 AM61 °FCool.No wind100%29.84 "Hg10 mi
7:15 AM61 °FCool.No wind100%29.84 "Hg10 mi
6:55 AM61 °FFog.No wind100%29.83 "Hg2 mi
6:35 AM63 °FMild.No wind100%29.83 "Hg10 mi
6:15 AM63 °FMild.No wind100%29.82 "Hg10 mi
5:55 AM63 °FMild.No wind100%29.82 "Hg8 mi
5:35 AM63 °FMild.No wind100%29.82 "Hg10 mi
5:15 AM63 °FMild.No wind100%29.82 "Hg9 mi
4:55 AM63 °FMild.No wind100%29.82 "Hg9 mi
4:35 AM63 °FMild.No wind100%29.82 "Hg10 mi
4:15 AM63 °FMild.3 mph100%29.82 "Hg7 mi
3:55 AM63 °FMild.No wind100%29.82 "Hg10 mi
3:35 AM64 °FMild.N/A94%29.82 "Hg10 mi
3:15 AM64 °FMild.No wind94%29.82 "Hg10 mi
2:55 AM63 °FMild.No wind100%29.82 "Hg10 mi
2:35 AM63 °FMild.No wind100%29.83 "Hg10 mi
2:15 AM64 °FMild.N/A94%29.83 "Hg10 mi
1:55 AM63 °FMild.No wind94%29.83 "Hg10 mi
1:35 AM64 °FMild.3 mph94%29.83 "Hg10 mi
1:15 AM63 °FMild.No wind94%29.83 "Hg10 mi
12:55 AM64 °FMild.No wind94%29.83 "Hg10 mi
12:35 AM64 °FMild.No wind94%29.84 "Hg10 mi
12:15 AM64 °FMild.No wind94%29.84 "Hg10 mi
11:15 PM
Mon, Oct 12
66 °FMild.No wind88%29.83 "Hg10 mi
10:55 PM68 °FMild.No wind78%29.83 "Hg10 mi
10:35 PM68 °FMild.No wind83%29.83 "Hg10 mi
10:15 PM70 °FMild.No wind78%29.83 "Hg10 mi
9:55 PM70 °FMild.No wind78%29.83 "Hg10 mi
9:35 PM70 °FMild.5 mph73%29.82 "Hg10 mi
9:15 PM72 °FMild.5 mph73%29.82 "Hg10 mi
8:55 PM72 °FMild.3 mph73%29.82 "Hg10 mi
8:35 PM72 °FMild.6 mph73%29.82 "Hg10 mi
8:15 PM73 °FMild.6 mph65%29.81 "Hg8 mi
7:55 PM73 °FMild.6 mph65%29.80 "Hg10 mi
7:35 PM75 °FMild.5 mph61%29.80 "Hg10 mi
7:15 PM77 °FWarm.6 mph57%29.79 "Hg9 mi
6:55 PM79 °FWarm.6 mph54%29.78 "Hg10 mi
6:15 PM81 °FWarm.5 mph48%29.78 "Hg10 mi
5:55 PM81 °FWarm.6 mph45%29.78 "Hg10 mi
5:15 PM82 °FWarm.8 mph42%29.77 "Hg10 mi
Weather by CustomWeather, © 2015

See weather overviewHow to use our weather pages